Simultaneous Nadir Overpasses (SNOs) Predictions

Prediction of SNOs between AURA and NPP Satellite Orbit:

Table of predicted SNOs for the next 14.0 days since TLE Epoch: 12/2/2023
Index Date (AURA) Time (AURA) Lat,Lon (AURA) SZA (AURA ) Date (NPP) Time (NPP) Lat,Lon (NPP) SZA (NPP ) Distance(km) Time Diff (sec)
1 12/02/2023 22:50:18 -80.17, -79.49 67.59 12/02/2023 22:49:57 -80.17, -79.41 67.59 1.52 21
2 12/02/2023 23:39:39 80.27, 89.06 112.27 12/02/2023 23:40:38 80.26, 89.02 112.23 0.82 59
3 12/05/2023 13:25:32 -80.12, 61.35 67.14 12/05/2023 13:25:22 -80.12, 61.25 67.11 1.87 10
4 12/05/2023 14:14:50 80.32,-129.22 112.57 12/05/2023 14:15:59 80.33,-129.10 112.50 2.37 69
5 12/08/2023 04:00:40 -80.21,-156.71 66.91 12/08/2023 04:00:42 -80.21,-156.64 66.93 1.32 2
6 12/10/2023 17:46:28 80.03, 175.31 113.66 12/10/2023 17:45:26 80.02, 175.17 113.73 2.76 62
7 12/10/2023 18:35:48 -80.21, -15.44 66.62 12/10/2023 18:36:05 -80.20, -15.54 66.62 1.89 17
8 12/13/2023 08:21:30 80.12, -42.63 113.76 12/13/2023 08:20:44 80.12, -42.62 113.79 0.29 46
9 12/13/2023 09:10:51 -80.27, 126.34 66.47 12/13/2023 09:11:24 -80.27, 126.41 66.50 1.43 33
10 12/15/2023 22:56:32 80.17, 99.07 113.89 12/15/2023 22:56:04 80.18, 99.22 113.88 3.12 28



Historial Predications of SNOs between AURA and NPP
